Home > Weather > Røyken > Past weeks

Flag for Norway Past Weather in Røyken, Norway — Yesterday and Last 2 Weeks

Now
57 °F

Sprinkles. Fog.


Feels Like: 54 °F
Forecast: 54 / 72 °F
Wind: 15 mph from South

Location: Statfjord B

Current Time: Jul 24, 2016 at 3:05:33 AM

Latest Report: Jul 24, 2016 at 2:20 AM


Visibility: 0 mi

Pressure: 30.07 "Hg

Humidity: 100%

Dew Point: 57 °F

Location of RøykenLocation

Past Weather in Røyken — Graph

°F

Røyken Temperature Yesterday

Maximum temperature yesterday: 63 °F (at 11:20 AM)
Minimum temperature yesterday: 55 °F (at 5:50 AM)
Average temperature yesterday: 58 °F

High & Low Weather Summary for the Past Weeks

 TemperatureHumidityPressure
High75 °F (Jul 21, 8:20 AM)100% (Jul 9, 1:20 AM)30.12 "Hg (Jul 9, 1:20 AM)
Low52 °F (Jul 9, 5:50 AM)54% (Jul 21, 8:20 AM)29.36 "Hg (Jul 11, 5:20 AM)
Average56 °F89%29.84 "Hg
* Reported Jul 9 1:20 AM — Jul 24 1:50 AM, Røyken, Weather by CustomWeather, © 2016

Note: Actual official high and low records may vary slightly from our data, if they occured in-between our weather recording intervals... More about our weather records

Advertising

Røyken Weather History for the Previous 24 Hours

Scroll right to see more
 ConditionsComfort  
Time TempWeatherWind HumidityBarometerVisibility
1:50 AM
Sun, Jul 24
57 °FFog.15 mph100%30.07 "Hg1 mi
1:20 AM57 °FFog.16 mph100%30.07 "Hg1 mi
12:50 AM57 °FPassing clouds.16 mph100%30.07 "Hg5 mi
12:20 AM59 °FPassing clouds.20 mph94%30.07 "HgN/A
11:50 PM
Sat, Jul 23
59 °FPassing clouds.20 mph100%30.07 "Hg5 mi
11:20 PM59 °FFog.16 mph100%30.07 "Hg1 mi
10:50 PM59 °FSprinkles. Fog.17 mph100%30.07 "Hg1 mi
10:20 PM59 °FFog.15 mph100%30.07 "Hg1 mi
9:50 PM57 °FFog.13 mph100%30.07 "Hg1 mi
9:20 PM57 °FSprinkles. Fog.16 mph100%30.07 "Hg1 mi
8:50 PM57 °FSprinkles. Fog.12 mph100%30.09 "Hg1 mi
8:20 PM57 °FSprinkles. Partly sunny.12 mph94%30.09 "HgN/A
7:50 PM57 °FSprinkles. Overcast.9 mph94%30.09 "HgN/A
7:20 PM57 °FSprinkles. Overcast.9 mph94%30.09 "HgN/A
6:50 PM57 °FLight rain. Overcast.9 mph94%30.09 "HgN/A
6:20 PM57 °FOvercast.8 mph88%30.09 "HgN/A
5:50 PM57 °FOvercast.9 mph88%30.09 "HgN/A
5:20 PM57 °FOvercast.6 mph94%30.09 "HgN/A
4:50 PM57 °FOvercast.2 mph88%30.12 "HgN/A
4:20 PM59 °FOvercast.5 mph88%30.12 "HgN/A
3:50 PM59 °FOvercast.6 mph82%30.12 "HgN/A
3:20 PM59 °FOvercast.5 mph82%30.12 "HgN/A
2:50 PM57 °FOvercast.2 mph88%30.12 "HgN/A
2:20 PM57 °FPartly sunny.1 mph88%30.12 "HgN/A
1:50 PM57 °FPartly sunny.2 mph88%30.12 "HgN/A
1:20 PM59 °FPartly sunny.1 mph82%30.12 "HgN/A
12:50 PM61 °FScattered clouds.2 mph77%30.12 "HgN/A
12:20 PM61 °FPassing clouds.2 mph77%30.12 "HgN/A
11:50 AM61 °FPartly sunny.2 mph77%30.12 "HgN/A
11:20 AM63 °FScattered clouds.3 mph77%30.09 "HgN/A
10:50 AM61 °FPartly sunny.5 mph83%30.09 "HgN/A
10:20 AM57 °FBroken clouds.6 mph88%30.12 "HgN/A
9:50 AM55 °FPartly sunny.5 mph94%30.09 "HgN/A
9:20 AM55 °FPartly sunny.5 mph100%30.09 "HgN/A
8:50 AM55 °FBroken clouds.7 mph100%30.09 "HgN/A
8:20 AM55 °FFog.6 mph100%30.09 "Hg1 mi
7:50 AM55 °FFog.6 mph100%30.09 "Hg0 mi
7:20 AM55 °FFog.8 mph100%30.07 "Hg1 mi
6:50 AM55 °FSprinkles. Fog.8 mph100%30.07 "Hg0 mi
6:20 AM55 °FSprinkles. Fog.13 mph100%30.07 "Hg1 mi
5:50 AM55 °FFog.14 mph100%30.07 "Hg1 mi
5:20 AM57 °FFog.17 mph100%30.07 "Hg0 mi
4:50 AM57 °FSprinkles. Fog.20 mph100%30.07 "Hg0 mi
4:20 AM57 °FFog.18 mph100%30.07 "Hg2 mi
3:50 AM57 °FLow clouds.22 mph100%30.07 "HgN/A
3:20 AM59 °FLow clouds.21 mph94%30.07 "HgN/A
Weather by CustomWeather, © 2016

See weather overviewHow to use our weather pages